Year,Month,Day,Hour,Minute,Value (Times are PST for temperature in C)
2012,07,05,04,36,8.20
2012,07,05,04,37,8.20
2012,07,05,04,38,8.20
2012,07,05,04,39,8.20
2012,07,05,04,40,8.20
2012,07,05,04,41,8.20
2012,07,05,04,42,8.20
2012,07,05,04,43,8.20
2012,07,05,04,44,8.20
2012,07,05,04,45,8.20
2012,07,05,04,46,8.20
2012,07,05,04,47,8.20
2012,07,05,04,48,8.20
2012,07,05,04,49,8.20
2012,07,05,04,50,8.10
2012,07,05,04,51,8.10
2012,07,05,04,52,8.10
2012,07,05,04,53,8.10
2012,07,05,04,54,8.10
2012,07,05,04,55,8.10
2012,07,05,04,56,8.10
2012,07,05,04,57,8.10
2012,07,05,04,58,8.10
2012,07,05,04,59,8.10
2012,07,05,05,00,8.10
2012,07,05,05,01,8.10
2012,07,05,05,02,8.00
2012,07,05,05,03,8.00
2012,07,05,05,04,8.00
2012,07,05,05,05,8.00
2012,07,05,05,06,8.00
2012,07,05,05,07,8.00
2012,07,05,05,08,8.00
2012,07,05,05,11,8.00
2012,07,05,05,12,7.90
2012,07,05,05,13,7.90
2012,07,05,05,14,7.90
2012,07,05,05,15,7.90
2012,07,05,05,16,7.90
2012,07,05,05,17,7.90
2012,07,05,05,18,7.90
2012,07,05,05,19,7.80
2012,07,05,05,20,7.80
2012,07,05,05,21,7.80
2012,07,05,05,22,7.80
2012,07,05,05,23,7.80
2012,07,05,05,24,7.80
2012,07,05,05,25,7.80
2012,07,05,05,26,7.70
2012,07,05,05,27,7.70
2012,07,05,05,28,7.70
2012,07,05,05,29,7.60
2012,07,05,05,30,7.60
2012,07,05,05,31,7.60
2012,07,05,05,32,7.50
2012,07,05,05,33,7.50
2012,07,05,05,34,7.40
2012,07,05,05,35,7.40
2012,07,05,05,36,7.40
2012,07,05,05,37,7.30
2012,07,05,05,38,7.30
2012,07,05,05,39,7.30
2012,07,05,05,40,7.30
2012,07,05,05,41,7.30
2012,07,05,05,42,7.30
2012,07,05,05,43,7.20
2012,07,05,05,44,7.20
2012,07,05,05,45,7.20
2012,07,05,05,46,7.20
2012,07,05,05,47,7.20
2012,07,05,05,48,7.10
2012,07,05,05,49,7.10
2012,07,05,05,50,7.10
2012,07,05,05,51,7.10
2012,07,05,05,52,7.10
2012,07,05,05,53,7.10
2012,07,05,05,54,7.10
2012,07,05,05,55,7.10
2012,07,05,05,56,7.10
2012,07,05,05,57,7.10
2012,07,05,05,58,7.10
2012,07,05,05,59,7.10
2012,07,05,06,00,7.10
2012,07,05,06,01,7.10
2012,07,05,06,02,7.10
2012,07,05,06,03,7.10
2012,07,05,06,04,7.10
2012,07,05,06,05,7.10
2012,07,05,06,06,7.10
2012,07,05,06,07,7.10
2012,07,05,06,08,7.20
2012,07,05,06,09,7.20
2012,07,05,06,10,7.20
2012,07,05,06,11,7.20
2012,07,05,06,12,7.20
2012,07,05,06,13,7.20
2012,07,05,06,14,7.20
2012,07,05,06,15,7.20
2012,07,05,06,16,7.20
2012,07,05,06,17,7.30
2012,07,05,06,18,7.30
2012,07,05,06,19,7.30
2012,07,05,06,20,7.30
2012,07,05,06,21,7.30
2012,07,05,06,22,7.30
2012,07,05,06,23,7.30
2012,07,05,06,24,7.30
2012,07,05,06,25,7.30
2012,07,05,06,26,7.30
2012,07,05,06,27,7.30
2012,07,05,06,28,7.30
2012,07,05,06,29,7.30
2012,07,05,06,30,7.30
2012,07,05,06,31,7.30
2012,07,05,06,32,7.30
2012,07,05,06,33,7.30
2012,07,05,06,34,7.30
2012,07,05,06,35,7.30
2012,07,05,06,36,7.40
2012,07,05,06,37,7.40
2012,07,05,06,38,7.40
2012,07,05,06,39,7.40
2012,07,05,06,40,7.50
2012,07,05,06,41,7.50
2012,07,05,06,42,7.50
2012,07,05,06,43,7.60
2012,07,05,06,44,7.60
2012,07,05,06,45,7.60
2012,07,05,06,46,7.70
2012,07,05,06,47,7.70
2012,07,05,06,48,7.80
2012,07,05,06,49,7.80
2012,07,05,06,50,7.80
2012,07,05,06,51,7.80
2012,07,05,06,52,7.80
2012,07,05,06,53,7.90
2012,07,05,06,54,7.90
2012,07,05,06,55,7.90
2012,07,05,06,56,8.00
2012,07,05,06,57,8.00
2012,07,05,06,58,8.00
2012,07,05,06,59,8.00
2012,07,05,07,00,8.10
2012,07,05,07,01,8.10
2012,07,05,07,02,8.10
2012,07,05,07,03,8.20
2012,07,05,07,04,8.20
2012,07,05,07,05,8.20
2012,07,05,07,06,8.20
2012,07,05,07,07,8.20
2012,07,05,07,08,8.30
2012,07,05,07,09,8.30
2012,07,05,07,10,8.40
2012,07,05,07,11,8.40
2012,07,05,07,12,8.40
2012,07,05,07,13,8.50
2012,07,05,07,14,8.50
2012,07,05,07,15,8.60
2012,07,05,07,16,8.70
2012,07,05,07,17,8.70
2012,07,05,07,18,8.70
2012,07,05,07,19,8.70
2012,07,05,07,20,8.70
2012,07,05,07,21,8.80
2012,07,05,07,22,8.90
2012,07,05,07,23,8.90
2012,07,05,07,24,9.00
2012,07,05,07,25,9.00
2012,07,05,07,26,9.10
2012,07,05,07,27,9.10
2012,07,05,07,28,9.20
2012,07,05,07,29,9.30
2012,07,05,07,30,9.40
2012,07,05,07,31,9.50
2012,07,05,07,32,9.60
2012,07,05,07,33,9.70
2012,07,05,07,34,9.80
2012,07,05,07,35,10.00
2012,07,05,07,36,10.10
2012,07,05,07,37,10.30
2012,07,05,07,38,10.40
2012,07,05,07,39,10.60
2012,07,05,07,40,10.70
2012,07,05,07,41,10.80
2012,07,05,07,42,10.90
2012,07,05,07,43,11.10
2012,07,05,07,44,11.20
2012,07,05,07,45,11.40
2012,07,05,07,46,11.50
2012,07,05,07,47,11.60
2012,07,05,07,48,11.80
2012,07,05,07,49,11.80
2012,07,05,07,50,11.90
2012,07,05,07,51,12.00
2012,07,05,07,52,12.10
2012,07,05,07,53,12.10
2012,07,05,07,54,12.20
2012,07,05,07,55,12.20
2012,07,05,07,56,12.30
2012,07,05,07,57,12.40
2012,07,05,07,58,12.50
2012,07,05,07,59,12.60
2012,07,05,08,00,12.60
2012,07,05,08,01,12.70
2012,07,05,08,02,12.70
2012,07,05,08,03,12.80
2012,07,05,08,04,12.80
2012,07,05,08,05,12.80
2012,07,05,08,06,12.80
2012,07,05,08,07,12.80
2012,07,05,08,08,12.80
2012,07,05,08,09,12.90
2012,07,05,08,10,12.90
2012,07,05,08,11,13.00
2012,07,05,08,12,13.10
2012,07,05,08,13,13.20
2012,07,05,08,14,13.30
2012,07,05,08,15,13.40
2012,07,05,08,16,13.50
2012,07,05,08,17,13.50
2012,07,05,08,18,13.60
2012,07,05,08,19,13.70
2012,07,05,08,20,13.70
2012,07,05,08,21,13.70
2012,07,05,08,22,13.80
2012,07,05,08,23,13.90
2012,07,05,08,24,14.00
2012,07,05,08,25,14.00
2012,07,05,08,26,14.00
2012,07,05,08,27,14.10
2012,07,05,08,28,14.20
2012,07,05,08,29,14.20
2012,07,05,08,30,14.40
2012,07,05,08,31,14.50
2012,07,05,08,32,14.60
2012,07,05,08,33,14.60
2012,07,05,08,34,14.70
2012,07,05,08,35,14.80
2012,07,05,08,36,15.00
2012,07,05,08,37,15.10
2012,07,05,08,38,15.10
2012,07,05,08,39,15.20
2012,07,05,08,40,15.30
2012,07,05,08,41,15.40
2012,07,05,08,42,15.50
2012,07,05,08,43,15.50
2012,07,05,08,44,15.60
2012,07,05,08,45,15.70
2012,07,05,08,46,15.70
2012,07,05,08,47,15.70
2012,07,05,08,48,15.80
2012,07,05,08,49,15.80
2012,07,05,08,50,15.80
2012,07,05,08,51,15.80
2012,07,05,08,52,15.90
2012,07,05,08,53,16.00
2012,07,05,08,54,16.10
2012,07,05,08,55,16.10
2012,07,05,08,56,16.20
2012,07,05,08,57,16.30
2012,07,05,08,58,16.40
2012,07,05,08,59,16.50
2012,07,05,09,00,16.60
2012,07,05,09,01,16.60
2012,07,05,09,02,16.70
2012,07,05,09,03,16.70
2012,07,05,09,04,16.70
2012,07,05,09,05,16.70
2012,07,05,09,06,16.70
2012,07,05,09,07,16.70
2012,07,05,09,08,16.70
2012,07,05,09,09,16.80
2012,07,05,09,10,16.80
2012,07,05,09,11,16.70
2012,07,05,09,12,16.80
2012,07,05,09,13,16.80
2012,07,05,09,14,16.80
2012,07,05,09,15,16.80
2012,07,05,09,16,16.80
2012,07,05,09,17,16.70
2012,07,05,09,18,16.80
2012,07,05,09,19,16.80
2012,07,05,09,20,16.70
2012,07,05,09,21,16.70
2012,07,05,09,22,16.70
2012,07,05,09,23,16.70
2012,07,05,09,24,16.60
2012,07,05,09,25,16.60
2012,07,05,09,26,16.60
2012,07,05,09,27,16.60
2012,07,05,09,28,16.70
2012,07,05,09,29,16.70
2012,07,05,09,30,16.70
2012,07,05,09,31,16.70
2012,07,05,09,32,16.80
2012,07,05,09,33,16.80
2012,07,05,09,34,16.80
2012,07,05,09,35,16.80
2012,07,05,09,36,16.90
2012,07,05,09,37,16.90
2012,07,05,09,38,17.00
2012,07,05,09,39,17.00
2012,07,05,09,40,17.00
2012,07,05,09,41,17.00
2012,07,05,09,42,17.00
2012,07,05,09,43,17.00
2012,07,05,09,44,17.00
2012,07,05,09,45,17.10
2012,07,05,09,46,17.10
2012,07,05,09,47,17.20
2012,07,05,09,48,17.30
2012,07,05,09,49,17.30
2012,07,05,09,50,17.30
2012,07,05,09,51,17.20
2012,07,05,09,52,17.30
2012,07,05,09,53,17.30
2012,07,05,09,54,17.30
2012,07,05,09,55,17.30
2012,07,05,09,56,17.30
2012,07,05,09,57,17.30
2012,07,05,09,58,17.30
2012,07,05,09,59,17.30
2012,07,05,10,00,17.30
2012,07,05,10,01,17.30
2012,07,05,10,02,17.30
2012,07,05,10,03,17.30
2012,07,05,10,04,17.30
2012,07,05,10,05,17.30
2012,07,05,10,06,17.30
2012,07,05,10,07,17.30
2012,07,05,10,08,17.30
2012,07,05,10,09,17.30
2012,07,05,10,10,17.30
2012,07,05,10,11,17.30
2012,07,05,10,12,17.30
2012,07,05,10,13,17.30
2012,07,05,10,14,17.30
2012,07,05,10,15,17.30
2012,07,05,10,16,17.30
2012,07,05,10,17,17.40
2012,07,05,10,18,17.40
2012,07,05,10,19,17.40
2012,07,05,10,20,17.50
2012,07,05,10,21,17.50
2012,07,05,10,22,17.50
2012,07,05,10,23,17.50
2012,07,05,10,24,17.60
2012,07,05,10,25,17.60
2012,07,05,10,26,17.60
2012,07,05,10,27,17.60
2012,07,05,10,28,17.60
2012,07,05,10,29,17.60
2012,07,05,10,30,17.60
2012,07,05,10,31,17.70
2012,07,05,10,32,17.70
2012,07,05,10,33,17.80
2012,07,05,10,34,17.90
2012,07,05,10,35,17.90
2012,07,05,10,36,17.90
2012,07,05,10,37,17.90
2012,07,05,10,38,18.00
2012,07,05,10,39,18.10
2012,07,05,10,40,18.00
2012,07,05,10,41,17.90
2012,07,05,10,42,17.90
2012,07,05,10,43,17.80
2012,07,05,10,44,17.80
2012,07,05,10,45,17.80
2012,07,05,10,46,17.90
2012,07,05,10,47,17.90
2012,07,05,10,48,18.00
2012,07,05,10,49,18.10
2012,07,05,10,50,18.20
2012,07,05,10,51,18.20
2012,07,05,10,52,18.20
2012,07,05,10,53,18.20
2012,07,05,10,54,18.30
2012,07,05,10,55,18.30
2012,07,05,10,56,18.40
2012,07,05,10,57,18.40
2012,07,05,10,58,18.50
2012,07,05,10,59,18.50
2012,07,05,11,00,18.60
2012,07,05,11,01,18.60
2012,07,05,11,02,18.60
2012,07,05,11,03,18.50
2012,07,05,11,04,18.40
2012,07,05,11,05,18.40
2012,07,05,11,06,18.40
2012,07,05,11,07,18.30
2012,07,05,11,08,18.30
2012,07,05,11,09,18.30
2012,07,05,11,10,18.40
2012,07,05,11,11,18.40
2012,07,05,11,12,18.40
2012,07,05,11,13,18.30
2012,07,05,11,14,18.30
2012,07,05,11,15,18.30
2012,07,05,11,16,18.40
2012,07,05,11,17,18.40
2012,07,05,11,18,18.50
2012,07,05,11,19,18.50
2012,07,05,11,20,18.60
2012,07,05,11,21,18.70
2012,07,05,11,22,18.70
2012,07,05,11,23,18.70
2012,07,05,11,24,18.70
2012,07,05,11,25,18.70
2012,07,05,11,26,18.70
2012,07,05,11,27,18.80
2012,07,05,11,28,18.80
2012,07,05,11,29,18.70
2012,07,05,11,30,18.70
2012,07,05,11,31,18.80
2012,07,05,11,32,18.80
2012,07,05,11,33,18.80
2012,07,05,11,34,18.90
2012,07,05,11,35,18.90
2012,07,05,11,36,18.90
2012,07,05,11,37,18.90
2012,07,05,11,38,18.90
2012,07,05,11,39,18.90
2012,07,05,11,40,18.90
2012,07,05,11,41,18.90
2012,07,05,11,42,18.90
2012,07,05,11,43,18.80
2012,07,05,11,44,18.80
2012,07,05,11,45,18.90
2012,07,05,11,46,18.90
2012,07,05,11,47,19.00
2012,07,05,11,48,19.10
2012,07,05,11,49,19.10
2012,07,05,11,50,19.10
2012,07,05,11,51,19.10
2012,07,05,11,52,19.10
2012,07,05,11,53,19.10
2012,07,05,11,54,19.20
2012,07,05,11,55,19.10
2012,07,05,11,56,19.10
2012,07,05,11,57,19.10
2012,07,05,11,58,19.10
2012,07,05,11,59,19.20
2012,07,05,12,00,19.20
2012,07,05,12,01,19.10
2012,07,05,12,02,19.20
2012,07,05,12,03,19.20
2012,07,05,12,04,19.10
2012,07,05,12,05,19.10
2012,07,05,12,06,19.10
2012,07,05,12,07,19.20
2012,07,05,12,08,19.30
2012,07,05,12,09,19.30
2012,07,05,12,10,19.40
2012,07,05,12,11,19.50
2012,07,05,12,12,19.60
2012,07,05,12,13,19.60
2012,07,05,12,14,19.50
2012,07,05,12,15,19.50
2012,07,05,12,16,19.50
2012,07,05,12,17,19.50
2012,07,05,12,18,19.50
2012,07,05,12,19,19.60
2012,07,05,12,20,19.70
2012,07,05,12,21,19.80
2012,07,05,12,22,19.90
2012,07,05,12,23,20.00
2012,07,05,12,24,20.10
2012,07,05,12,25,20.10
2012,07,05,12,26,20.20
2012,07,05,12,27,20.20
2012,07,05,12,28,20.30
2012,07,05,12,29,20.40
2012,07,05,12,30,20.40
2012,07,05,12,31,20.40
2012,07,05,12,32,20.50
2012,07,05,12,33,20.50
2012,07,05,12,34,20.50
2012,07,05,12,35,20.60
2012,07,05,12,36,20.60
2012,07,05,12,37,20.70
2012,07,05,12,38,20.70
2012,07,05,12,39,20.60
2012,07,05,12,40,20.60
2012,07,05,12,41,20.60
2012,07,05,12,42,20.60
2012,07,05,12,43,20.60
2012,07,05,12,44,20.60
2012,07,05,12,45,20.60
2012,07,05,12,46,20.60
2012,07,05,12,47,20.60
2012,07,05,12,48,20.60
2012,07,05,12,49,20.60
2012,07,05,12,50,20.60
2012,07,05,12,51,20.50
2012,07,05,12,52,20.50
2012,07,05,12,53,20.50
2012,07,05,12,54,20.40
2012,07,05,12,55,20.50
2012,07,05,12,56,20.50
2012,07,05,12,57,20.50
2012,07,05,12,58,20.50
2012,07,05,12,59,20.60
2012,07,05,13,00,20.60
2012,07,05,13,01,20.70
2012,07,05,13,02,20.70
2012,07,05,13,03,20.70
2012,07,05,13,04,20.80
2012,07,05,13,05,20.80
2012,07,05,13,06,20.70
2012,07,05,13,07,20.60
2012,07,05,13,08,20.50
2012,07,05,13,09,20.40
2012,07,05,13,10,20.30
2012,07,05,13,11,20.30
2012,07,05,13,12,20.40
2012,07,05,13,13,20.40
2012,07,05,13,14,20.50
2012,07,05,13,15,20.50
2012,07,05,13,16,20.60
2012,07,05,13,17,20.70
2012,07,05,13,18,20.80
2012,07,05,13,19,20.90
2012,07,05,13,20,21.00
2012,07,05,13,21,21.00
2012,07,05,13,22,21.10
2012,07,05,13,23,21.10
2012,07,05,13,24,21.10
2012,07,05,13,25,21.10
2012,07,05,13,26,21.10
2012,07,05,13,27,21.10
2012,07,05,13,28,21.10
2012,07,05,13,29,21.10
2012,07,05,13,30,21.10
2012,07,05,13,31,21.00
2012,07,05,13,32,21.00
2012,07,05,13,33,21.10
2012,07,05,13,34,21.10
2012,07,05,13,35,21.20
2012,07,05,13,36,21.20
2012,07,05,13,37,21.10
2012,07,05,13,38,21.10
2012,07,05,13,39,21.20
2012,07,05,13,40,21.20
2012,07,05,13,41,21.20
2012,07,05,13,42,21.20
2012,07,05,13,43,21.20
2012,07,05,13,44,21.20
2012,07,05,13,45,21.00
2012,07,05,13,46,20.90
2012,07,05,13,47,20.80
2012,07,05,13,48,20.80
2012,07,05,13,49,20.80
2012,07,05,13,50,20.90
2012,07,05,13,51,20.90
2012,07,05,13,52,21.00
2012,07,05,13,53,21.00
2012,07,05,13,54,21.10
2012,07,05,13,55,21.10
2012,07,05,13,56,21.10
2012,07,05,13,57,21.10
2012,07,05,13,58,21.10
2012,07,05,13,59,21.00
2012,07,05,14,00,21.00
2012,07,05,14,01,21.10
2012,07,05,14,02,21.10
2012,07,05,14,03,21.10
2012,07,05,14,04,21.20
2012,07,05,14,05,21.20
2012,07,05,14,06,21.30
2012,07,05,14,07,21.30
2012,07,05,14,08,21.40
2012,07,05,14,09,21.50
2012,07,05,14,10,21.60
2012,07,05,14,11,21.60
2012,07,05,14,12,21.60
2012,07,05,14,13,21.60
2012,07,05,14,14,21.60
2012,07,05,14,15,21.60
2012,07,05,14,16,21.60
2012,07,05,14,17,21.60
2012,07,05,14,18,21.60
2012,07,05,14,19,21.60
2012,07,05,14,20,21.60
2012,07,05,14,21,21.60
2012,07,05,14,22,21.60
2012,07,05,14,23,21.60
2012,07,05,14,24,21.60
2012,07,05,14,25,21.60
2012,07,05,14,26,21.50
2012,07,05,14,27,21.40
2012,07,05,14,28,21.40
2012,07,05,14,29,21.30
2012,07,05,14,30,21.30
2012,07,05,14,31,21.30
2012,07,05,14,32,21.30
2012,07,05,14,33,21.30
2012,07,05,14,34,21.30
2012,07,05,14,35,21.30
2012,07,05,14,36,21.30
2012,07,05,14,37,21.30
2012,07,05,14,38,21.40
2012,07,05,14,39,21.40
2012,07,05,14,40,21.50
2012,07,05,14,41,21.60
2012,07,05,14,42,21.60
2012,07,05,14,43,21.60
2012,07,05,14,44,21.70
2012,07,05,14,45,21.70
2012,07,05,14,46,21.70
2012,07,05,14,47,21.70
2012,07,05,14,48,21.70
2012,07,05,14,49,21.70
2012,07,05,14,50,21.70
2012,07,05,14,51,21.70
2012,07,05,14,52,21.70
2012,07,05,14,53,21.70
2012,07,05,14,54,21.80
2012,07,05,14,55,21.80
2012,07,05,14,56,21.90
2012,07,05,14,57,21.90
2012,07,05,14,58,21.90
2012,07,05,14,59,22.00
2012,07,05,15,00,22.00
2012,07,05,15,01,22.00
2012,07,05,15,02,22.00
2012,07,05,15,03,22.00
2012,07,05,15,04,22.00
2012,07,05,15,05,22.00
2012,07,05,15,06,22.10
2012,07,05,15,07,22.10
2012,07,05,15,08,22.10
2012,07,05,15,09,22.10
2012,07,05,15,10,22.10
2012,07,05,15,11,22.10
2012,07,05,15,12,22.10
2012,07,05,15,13,22.00
2012,07,05,15,14,21.90
2012,07,05,15,15,21.90
2012,07,05,15,16,21.90
2012,07,05,15,17,21.90
2012,07,05,15,18,21.90
2012,07,05,15,19,21.90
2012,07,05,15,20,22.00
2012,07,05,15,21,22.00
2012,07,05,15,22,22.00
2012,07,05,15,23,22.00
2012,07,05,15,24,21.90
2012,07,05,15,25,21.80
2012,07,05,15,26,21.80
2012,07,05,15,27,21.80
2012,07,05,15,28,21.80
2012,07,05,15,29,21.90
2012,07,05,15,30,21.90
2012,07,05,15,31,21.90
2012,07,05,15,32,21.90
2012,07,05,15,33,21.90
2012,07,05,15,34,22.00
2012,07,05,15,35,22.00
2012,07,05,15,36,22.00
2012,07,05,15,37,22.00
2012,07,05,15,38,21.90
2012,07,05,15,39,21.90
2012,07,05,15,40,21.90
2012,07,05,15,41,21.80
2012,07,05,15,42,21.80
2012,07,05,15,43,21.70
2012,07,05,15,44,21.70
2012,07,05,15,45,21.70
2012,07,05,15,46,21.60
2012,07,05,15,47,21.60
2012,07,05,15,48,21.60
2012,07,05,15,49,21.60
2012,07,05,15,50,21.60
2012,07,05,15,51,21.50
2012,07,05,15,52,21.40
2012,07,05,15,53,21.30
2012,07,05,15,54,21.30
2012,07,05,15,55,21.30
2012,07,05,15,56,21.30
2012,07,05,15,57,21.30
2012,07,05,15,58,21.30
2012,07,05,15,59,21.30
2012,07,05,16,00,21.30
2012,07,05,16,01,21.20
2012,07,05,16,02,21.10
2012,07,05,16,03,21.10
2012,07,05,16,04,21.00
2012,07,05,16,05,20.90
2012,07,05,16,06,20.90
2012,07,05,16,07,20.90
2012,07,05,16,08,21.00
2012,07,05,16,09,20.90
2012,07,05,16,10,20.90
2012,07,05,16,11,20.80
2012,07,05,16,12,20.80
2012,07,05,16,13,20.80
2012,07,05,16,14,20.70
2012,07,05,16,15,20.60
2012,07,05,16,16,20.60
2012,07,05,16,17,20.50
2012,07,05,16,18,20.50
2012,07,05,16,19,20.50
2012,07,05,16,20,20.40
2012,07,05,16,21,20.40
2012,07,05,16,22,20.40
2012,07,05,16,23,20.30
2012,07,05,16,24,20.30
2012,07,05,16,25,20.30
2012,07,05,16,26,20.20
2012,07,05,16,27,20.20
2012,07,05,16,28,20.10
2012,07,05,16,29,19.90
2012,07,05,16,30,19.90
2012,07,05,16,31,19.90
2012,07,05,16,32,19.90
2012,07,05,16,33,19.90
2012,07,05,16,34,19.90
2012,07,05,16,35,19.90
2012,07,05,16,36,19.90
2012,07,05,16,37,19.90
2012,07,05,16,38,19.90
2012,07,05,16,39,19.90
2012,07,05,16,40,19.90
2012,07,05,16,41,19.90
2012,07,05,16,42,19.90
2012,07,05,16,43,19.90
2012,07,05,16,44,19.90
2012,07,05,16,45,19.90
2012,07,05,16,46,19.90
2012,07,05,16,47,19.90
2012,07,05,16,48,19.90
2012,07,05,16,49,19.90
2012,07,05,16,50,19.90
2012,07,05,16,51,19.90
2012,07,05,16,52,19.90
2012,07,05,16,53,19.90
2012,07,05,16,54,19.90
2012,07,05,16,55,19.90
2012,07,05,16,56,19.90
2012,07,05,16,57,19.90
2012,07,05,16,58,19.90
2012,07,05,16,59,19.90
2012,07,05,17,00,19.90
2012,07,05,17,01,19.90
2012,07,05,17,02,19.90
2012,07,05,17,03,19.90
2012,07,05,17,04,19.90
2012,07,05,17,05,19.90
2012,07,05,17,06,19.90
2012,07,05,17,07,19.90
2012,07,05,17,08,19.90
2012,07,05,17,09,19.90
2012,07,05,17,10,19.90
2012,07,05,17,11,19.90
2012,07,05,17,12,19.90
2012,07,05,17,13,19.90
2012,07,05,17,14,19.90
2012,07,05,17,15,19.90
2012,07,05,17,16,19.90
2012,07,05,17,17,19.90
2012,07,05,17,18,19.80
2012,07,05,17,19,19.80
2012,07,05,17,20,19.80
2012,07,05,17,21,19.80
2012,07,05,17,22,19.80
2012,07,05,17,23,19.70
2012,07,05,17,24,19.70
2012,07,05,17,25,19.70
2012,07,05,17,26,19.70
2012,07,05,17,27,19.70
2012,07,05,17,28,19.70
2012,07,05,17,29,19.70
2012,07,05,17,30,19.60
2012,07,05,17,31,19.60
2012,07,05,17,32,19.60
2012,07,05,17,33,19.60
2012,07,05,17,34,19.60
2012,07,05,17,35,19.60
2012,07,05,17,36,19.60
2012,07,05,17,37,19.60
2012,07,05,17,38,19.60
2012,07,05,17,39,19.60
2012,07,05,17,40,19.50
2012,07,05,17,41,19.50
2012,07,05,17,42,19.50
2012,07,05,17,43,19.50
2012,07,05,17,44,19.50
2012,07,05,17,45,19.50
2012,07,05,17,46,19.50
2012,07,05,17,47,19.50
2012,07,05,17,48,19.50
2012,07,05,17,49,19.50
2012,07,05,17,50,19.50
2012,07,05,17,51,19.50
2012,07,05,17,52,19.50
2012,07,05,17,53,19.50
2012,07,05,17,54,19.50
2012,07,05,17,55,19.50
2012,07,05,17,56,19.50
2012,07,05,17,57,19.50
2012,07,05,17,58,19.50
2012,07,05,17,59,19.50
2012,07,05,18,00,19.50
2012,07,05,18,01,19.50
2012,07,05,18,02,19.50
2012,07,05,18,03,19.60
2012,07,05,18,04,19.60
2012,07,05,18,05,19.50
2012,07,05,18,06,19.50
2012,07,05,18,07,19.50
2012,07,05,18,08,19.40
2012,07,05,18,09,19.40
2012,07,05,18,10,19.30
2012,07,05,18,11,19.30
2012,07,05,18,12,19.20
2012,07,05,18,13,19.20
2012,07,05,18,14,19.20
2012,07,05,18,15,19.10
2012,07,05,18,16,19.10
2012,07,05,18,17,19.10
2012,07,05,18,18,19.10
2012,07,05,18,19,19.00
2012,07,05,18,20,18.90
2012,07,05,18,21,18.90
2012,07,05,18,22,18.90
2012,07,05,18,23,18.90
2012,07,05,18,24,18.90
2012,07,05,18,25,18.90
2012,07,05,18,26,18.80
2012,07,05,18,27,18.80
2012,07,05,18,28,18.80
2012,07,05,18,29,18.80
2012,07,05,18,30,18.80
2012,07,05,18,31,18.80
2012,07,05,18,32,18.80
2012,07,05,18,33,18.80
2012,07,05,18,34,18.70
2012,07,05,18,35,18.70
2012,07,05,18,36,18.60
2012,07,05,18,37,18.60
2012,07,05,18,38,18.50
2012,07,05,18,39,18.50
2012,07,05,18,40,18.50
2012,07,05,18,41,18.40
2012,07,05,18,42,18.40
2012,07,05,18,43,18.40
2012,07,05,18,44,18.40
2012,07,05,18,45,18.40
2012,07,05,18,46,18.40
2012,07,05,18,47,18.40
2012,07,05,18,48,18.40
2012,07,05,18,49,18.40
2012,07,05,18,50,18.40
2012,07,05,18,51,18.40
2012,07,05,18,52,18.40
2012,07,05,18,53,18.40
2012,07,05,18,54,18.40
2012,07,05,18,55,18.40
2012,07,05,18,56,18.40
2012,07,05,18,57,18.40
2012,07,05,18,58,18.30
2012,07,05,18,59,18.30
2012,07,05,19,00,18.20
2012,07,05,19,01,18.20
2012,07,05,19,02,18.20
2012,07,05,19,03,18.20
2012,07,05,19,04,18.20
2012,07,05,19,05,18.20
2012,07,05,19,06,18.20
2012,07,05,19,07,18.20
2012,07,05,19,08,18.20
2012,07,05,19,09,18.20
2012,07,05,19,10,18.20
2012,07,05,19,11,18.20
2012,07,05,19,12,18.20
2012,07,05,19,13,18.20
2012,07,05,19,14,18.20
2012,07,05,19,15,18.20
2012,07,05,19,16,18.10
2012,07,05,19,17,18.10
2012,07,05,19,18,18.10
2012,07,05,19,19,18.00
2012,07,05,19,20,17.90
2012,07,05,19,21,17.90
2012,07,05,19,22,17.90
2012,07,05,19,23,17.90
2012,07,05,19,24,17.90
2012,07,05,19,25,17.90
2012,07,05,19,26,17.90
2012,07,05,19,27,17.80
2012,07,05,19,28,17.80
2012,07,05,19,29,17.80
2012,07,05,19,30,17.70
2012,07,05,19,31,17.70
2012,07,05,19,32,17.70
2012,07,05,19,33,17.70
2012,07,05,19,34,17.60
2012,07,05,19,35,17.60
2012,07,05,19,36,17.50
2012,07,05,19,37,17.50
2012,07,05,19,38,17.50
2012,07,05,19,39,17.40
2012,07,05,19,40,17.40
2012,07,05,19,41,17.30
2012,07,05,19,42,17.30
2012,07,05,19,43,17.30
2012,07,05,19,44,17.30
2012,07,05,19,45,17.20
2012,07,05,19,46,17.20
2012,07,05,19,47,17.10
2012,07,05,19,48,17.10
2012,07,05,19,49,17.10
2012,07,05,19,50,17.10
2012,07,05,19,51,17.00
2012,07,05,19,52,17.00
2012,07,05,19,53,17.00
2012,07,05,19,54,16.90
2012,07,05,19,55,16.90
2012,07,05,19,56,16.90
2012,07,05,19,57,16.80
2012,07,05,19,58,16.80
2012,07,05,19,59,16.70
2012,07,05,20,00,16.70
2012,07,05,20,01,16.70
2012,07,05,20,02,16.70
2012,07,05,20,03,16.70
2012,07,05,20,04,16.60
2012,07,05,20,05,16.60
2012,07,05,20,06,16.50
2012,07,05,20,07,16.40
2012,07,05,20,08,16.40
2012,07,05,20,09,16.40
2012,07,05,20,10,16.40
2012,07,05,20,11,16.30
2012,07,05,20,12,16.30
2012,07,05,20,13,16.30
2012,07,05,20,14,16.20
2012,07,05,20,15,16.20
2012,07,05,20,16,16.20
2012,07,05,20,17,16.10
2012,07,05,20,18,16.10
2012,07,05,20,19,16.10
2012,07,05,20,20,16.00
2012,07,05,20,21,15.90
2012,07,05,20,22,15.90
2012,07,05,20,23,15.80
2012,07,05,20,24,15.80
2012,07,05,20,25,15.80
2012,07,05,20,26,15.80
2012,07,05,20,27,15.70
2012,07,05,20,28,15.70
2012,07,05,20,29,15.60
2012,07,05,20,30,15.60
2012,07,05,20,31,15.50
2012,07,05,20,32,15.50
2012,07,05,20,33,15.50
2012,07,05,20,34,15.40
2012,07,05,20,35,15.40
2012,07,05,20,36,15.30
2012,07,05,20,37,15.30
2012,07,05,20,38,15.30
2012,07,05,20,39,15.30
2012,07,05,20,40,15.30
2012,07,05,20,41,15.20
2012,07,05,20,42,15.20
2012,07,05,20,43,15.10
2012,07,05,20,44,15.10
2012,07,05,20,45,15.10
2012,07,05,20,46,15.10
2012,07,05,20,47,15.00
2012,07,05,20,48,15.00
2012,07,05,20,49,15.00
2012,07,05,20,50,14.90
2012,07,05,20,51,14.90
2012,07,05,20,52,14.80
2012,07,05,20,53,14.80
2012,07,05,20,54,14.80
2012,07,05,20,55,14.80
2012,07,05,20,56,14.80
2012,07,05,20,57,14.70
2012,07,05,20,58,14.70
2012,07,05,20,59,14.70
2012,07,05,21,00,14.60
2012,07,05,21,01,14.60
2012,07,05,21,02,14.60
2012,07,05,21,03,14.60
2012,07,05,21,04,14.50
2012,07,05,21,05,14.50
2012,07,05,21,06,14.50
2012,07,05,21,07,14.40
2012,07,05,21,08,14.40
2012,07,05,21,09,14.40
2012,07,05,21,10,14.30
2012,07,05,21,11,14.30
2012,07,05,21,12,14.30
2012,07,05,21,13,14.20
2012,07,05,21,14,14.20
2012,07,05,21,15,14.20
2012,07,05,21,16,14.20
2012,07,05,21,17,14.10
2012,07,05,21,18,14.10
2012,07,05,21,19,14.10
2012,07,05,21,20,14.00
2012,07,05,21,21,14.00
2012,07,05,21,22,14.00
2012,07,05,21,23,13.90
2012,07,05,21,24,13.90
2012,07,05,21,25,13.90
2012,07,05,21,26,13.90
2012,07,05,21,27,13.80
2012,07,05,21,28,13.70
2012,07,05,21,29,13.70
2012,07,05,21,30,13.70
2012,07,05,21,31,13.70
2012,07,05,21,32,13.60
2012,07,05,21,33,13.60
2012,07,05,21,34,13.50
2012,07,05,21,35,13.50
2012,07,05,21,36,13.50
2012,07,05,21,37,13.40
2012,07,05,21,38,13.40
2012,07,05,21,39,13.40
2012,07,05,21,40,13.30
2012,07,05,21,41,13.30
2012,07,05,21,42,13.30
2012,07,05,21,43,13.30
2012,07,05,21,44,13.30
2012,07,05,21,45,13.30
2012,07,05,21,46,13.30
2012,07,05,21,47,13.20
2012,07,05,21,48,13.20
2012,07,05,21,49,13.20
2012,07,05,21,50,13.10
2012,07,05,21,51,13.10
2012,07,05,21,52,13.10
2012,07,05,21,53,13.10
2012,07,05,21,54,13.00
2012,07,05,21,55,13.00
2012,07,05,21,56,13.00
2012,07,05,21,57,12.90
2012,07,05,21,58,12.90
2012,07,05,21,59,12.80
2012,07,05,22,00,12.80
2012,07,05,22,01,12.80
2012,07,05,22,02,12.80
2012,07,05,22,03,12.80
2012,07,05,22,04,12.80
2012,07,05,22,05,12.80